If you wish to contribute or participate in the discussions about articles you are invited to join SKYbrary as a registered user

 Actions

Da Nang International Airport

From SKYbrary Wiki

VVDN /
Revision as of 08:36, 19 August 2019 by Integration.Manager (talk | contribs)
(diff) ← Older revision | Latest revision (diff) | Newer revision → (diff)
Airport
ICAO: VVDN – IATA: DAD
Summary
Name Da Nang International Airport
Region Asia and Pacific
Territory Vietnam VN.gif
Location Da Nang, Da Nang
Serving Da Nang
Elevation 10.058 m
33 ft10.058 m
Coordinates 16° 2' 38.00" N, 108° 11' 57.98" E
Runways
Designator Length Width Surface ROPS
17L/35R 3048 m10,000 ft
45 m147.638 ft
ASP yes/yes
17R/35L 3048 m10,000 ft
45 m147.638 ft
ASP yes/yes


METAR
Observation VVDN 190330Z 36006KT 330V040 9999 FEW013 FEW017CB BKN060 30/25 Q1012 NOSIG
Station Da Nang
Date/Time 19 September 2019 03:30:00
Wind direction 360°
Wind speed 06 kts
Lowest cloud amount few clouds
Temperature 30°C
Dew point 25°C
Humidity 74%
QNH 1012 hPa
Weather condition n/a

LOS
Tag(s) Parallel Runway Operation
WX
Tag(s) Cumulonimbus

Description

Da Nang International Airport is located in Da Nang, the largest city in central Vietnam.

Climatology

Tropical monsoon climate (Köppen climate classification Am)

Maps

Terrain

Loading map...

Airport Layout

Loading map...


Accidents & Serious Incidents at or in vicinity of VVDN

None on SKYbrary